Flag for Norway

Past Weather in Stavanger, Norway — Yesterday and Last 2 Weeks

Now
61 °F

Scattered clouds.


Feels Like: 61 °F
Forecast: 63 / 55 °F
Wind: 10 mph from Southwest

Location: Stavanger / Sola

Current Time: Aug 4, 2020 at 1:55:14 pm

Latest Report: Aug 4, 2020 at 12:50 pm


Visibility: N/A

Pressure: 29.89 "Hg

Humidity: 63%

Dew Point: 48 °F

Location of StavangerLocation

Past Weather in Stavanger — Graph

°F

Stavanger Temperature Yesterday

Maximum temperature yesterday: 61 °F (at 12:20 pm)
Minimum temperature yesterday: 55 °F (at 12:20 am)
Average temperature yesterday: 58 °F

High & Low Weather Summary for the Past Weeks

 TemperatureHumidityPressure
High75 °F (Aug 1, 12:50 pm)100% (Jul 27, 1:50 am)30.15 "Hg (Jul 27, 1:50 am)
Low46 °F (Jul 23, 4:50 am)49% (Jul 23, 11:50 am)29.30 "Hg (Jul 29, 12:50 am)
Average59 °F81%29.82 "Hg
* Reported Jul 20 12:20 pm — Aug 4 12:20 pm, Stavanger. Weather by CustomWeather, © 2020

Note: Actual official high and low records may vary slightly from our data, if they occured in-between our weather recording intervals... More about our weather records

Stavanger Weather History for the Previous 24 Hours

Scroll right to see more
 ConditionsComfort  
Time TempWeatherWind HumidityBarometerVisibility
12:20 pm
Tue, Aug 4
61 °FScattered clouds.9 mph59%29.89 "HgN/A
11:50 am61 °FScattered clouds.8 mph63%29.89 "HgN/A
11:20 am61 °FScattered clouds.8 mph63%29.89 "HgN/A
10:50 am59 °FMore clouds than sun.8 mph63%29.89 "HgN/A
10:20 am59 °FBroken clouds.7 mph68%29.89 "HgN/A
9:50 am57 °FBroken clouds.5 mph72%29.89 "HgN/A
9:20 am57 °FBroken clouds.6 mph77%29.89 "HgN/A
8:50 am55 °FBroken clouds.5 mph82%29.89 "HgN/A
8:20 am54 °FBroken clouds.5 mph88%29.89 "HgN/A
7:50 am52 °FBroken clouds.5 mph88%29.89 "HgN/A
7:20 am52 °FBroken clouds.5 mph88%29.89 "HgN/A
6:50 am50 °FBroken clouds.5 mph94%29.89 "HgN/A
6:20 am50 °FScattered clouds.6 mph88%29.89 "HgN/A
5:50 am50 °FScattered clouds.5 mph88%29.89 "HgN/A
5:20 am50 °FPassing clouds.3 mph88%29.89 "HgN/A
4:50 am50 °FPassing clouds.3 mph88%29.89 "HgN/A
4:20 am54 °FPassing clouds.2 mph77%29.89 "HgN/A
3:50 am54 °FPassing clouds.1 mph77%29.89 "HgN/A
3:20 am54 °FPassing clouds.No wind77%29.89 "HgN/A
2:50 am54 °FPassing clouds.3 mph77%29.89 "HgN/A
1:50 am55 °FPassing clouds.8 mph77%29.89 "HgN/A
1:20 am55 °FPassing clouds.3 mph77%29.89 "HgN/A
12:50 am55 °FPassing clouds.5 mph77%29.89 "HgN/A
12:20 am55 °FPassing clouds.6 mph77%29.89 "HgN/A
11:50 pm
Mon, Aug 3
55 °FPassing clouds.6 mph77%29.89 "HgN/A
11:20 pm55 °FPassing clouds.5 mph77%29.89 "HgN/A
10:50 pm55 °FPassing clouds.6 mph77%29.89 "HgN/A
10:20 pm55 °FPassing clouds.7 mph77%29.89 "HgN/A
9:50 pm55 °FScattered clouds.7 mph77%29.89 "HgN/A
9:20 pm57 °FScattered clouds.6 mph67%29.89 "HgN/A
8:50 pm59 °FScattered clouds.7 mph68%29.89 "HgN/A
8:20 pm59 °FScattered clouds.9 mph68%29.89 "HgN/A
7:50 pm59 °FScattered clouds.10 mph68%29.89 "HgN/A
7:20 pm59 °FPassing clouds.12 mph68%29.89 "HgN/A
6:50 pm59 °FScattered clouds.12 mph68%29.89 "HgN/A
6:20 pm61 °FScattered clouds.12 mph63%29.89 "HgN/A
5:50 pm61 °FScattered clouds.12 mph63%29.89 "HgN/A
5:20 pm61 °FPassing clouds.12 mph63%29.89 "HgN/A
4:50 pm61 °FScattered clouds.13 mph63%29.89 "HgN/A
4:20 pm61 °FScattered clouds.12 mph63%29.89 "HgN/A
3:50 pm61 °FPassing clouds.13 mph68%29.89 "HgN/A
3:20 pm61 °FPassing clouds.12 mph63%29.89 "HgN/A
2:50 pm61 °FScattered clouds.12 mph63%29.89 "HgN/A
2:20 pm61 °FScattered clouds.13 mph68%29.89 "HgN/A
1:50 pm61 °FScattered clouds.13 mph72%29.89 "HgN/A
1:20 pm59 °FScattered clouds.13 mph72%29.86 "HgN/A
Weather by CustomWeather, © 2020

See weather overview